Location: Caltech
(34.1382°N, 118.1253°W)
Time: 16:49:29
(UTC-07:00)

JAS-1B - Visible Passes

Search period start: 02 September 2015 00:00
Search period end: 12 September 2015 00:00
Orbit: 911 x 1745 km, 99.1° (Epoch: 02 September)

Date Brightness Start Highest point End Pass type
(mag) Time Alt. Az. Time Alt. Az. Time Alt. Az.
02 Sep 9.3 00:16:54 10° NNW 00:19:13 21° NNW 00:19:13 21° NNW visible
02 Sep 9.0 22:44:24 10° NNE 22:46:12 20° NNE 22:46:12 20° NNE visible
03 Sep 9.5 00:36:32 10° NNW 00:38:27 16° NW 00:38:27 16° NW visible
03 Sep 9.0 23:03:17 10° NNE 23:05:25 23° NNE 23:05:25 23° NNE visible
04 Sep 9.7 00:56:35 10° NNW 00:57:41 12° NW 00:57:41 12° NW visible
04 Sep 9.0 23:22:18 10° N 23:24:40 25° N 23:24:40 25° N visible
05 Sep 9.1 23:41:26 10° N 23:43:53 25° N 23:43:53 25° N visible
06 Sep 9.3 22:10:04 10° NE 22:10:52 14° NE 22:10:52 14° NE visible
07 Sep 9.2 00:00:44 10° N 00:03:07 22° NNW 00:03:07 22° NNW visible
07 Sep 9.2 22:28:41 10° NNE 22:30:07 17° NNE 22:30:07 17° NNE visible
08 Sep 9.4 00:20:10 10° NNW 00:22:21 19° NNW 00:22:21 19° NNW visible
08 Sep 9.1 22:47:28 10° NNE 22:49:20 21° NNE 22:49:20 21° NNE visible
09 Sep 9.6 00:39:52 10° NNW 00:41:35 15° NW 00:41:35 15° NW visible
09 Sep 9.1 23:06:25 10° NNE 23:08:35 23° NNE 23:08:35 23° NNE visible
10 Sep 9.8 01:00:02 10° NNW 01:00:50 12° NW 01:00:50 12° NW visible
10 Sep 9.2 23:25:29 10° N 23:27:49 24° N 23:27:49 24° N visible
11 Sep 9.5 21:54:34 10° NE 21:54:49 11° NE 21:54:49 11° NE visible
11 Sep 9.3 23:44:41 10° N 23:47:04 23° N 23:47:04 23° N visible
